Dew Point Data


Current

Temp 71.0 F. Dew Point 64.9 F.


Dew Point Comfort Scale

dewpoints

Date, Time Temperature Dew Point
Mon Jul 9 03:08:04 2018 73.0 F. 71.1 F.
Mon Jul 9 04:08:05 2018 72.0 F. 71.1 F.
Mon Jul 9 05:08:05 2018 72.0 F. 70.0 F.
Mon Jul 9 06:08:06 2018 72.0 F. 70.0 F.
Mon Jul 9 07:08:04 2018 73.0 F. 72.0 F.
Mon Jul 9 08:08:08 2018 73.0 F. 72.0 F.
Mon Jul 9 09:08:05 2018 82.0 F. 73.9 F.
Mon Jul 9 10:08:05 2018 82.0 F. 73.9 F.
Mon Jul 9 11:08:04 2018 86.0 F. 73.0 F.
Mon Jul 9 12:08:05 2018 88.0 F. 73.0 F.
Mon Jul 9 13:08:05 2018 88.0 F. 73.0 F.
Mon Jul 9 14:08:05 2018 88.0 F. 73.0 F.
Mon Jul 9 15:08:04 2018 88.0 F. 73.0 F.
Mon Jul 9 16:08:04 2018 90.0 F. 73.0 F.
Mon Jul 9 17:08:05 2018 90.0 F. 72.0 F.
Mon Jul 9 18:08:09 2018 90.0 F. 72.0 F.
Mon Jul 9 19:08:04 2018 91.0 F. 72.0 F.
Mon Jul 9 20:08:04 2018 88.0 F. 73.9 F.
Mon Jul 9 21:08:05 2018 85.0 F. 73.9 F.
Mon Jul 9 22:08:04 2018 79.0 F. 75.9 F.
Mon Jul 9 23:08:05 2018 78.0 F. 73.9 F.
Tue Jul 10 00:08:05 2018 77.0 F. 73.9 F.
Tue Jul 10 01:08:04 2018 76.0 F. 73.0 F.
Tue Jul 10 02:08:05 2018 76.0 F. 73.0 F.
Tue Jul 10 03:08:05 2018 75.0 F. 73.0 F.
Tue Jul 10 04:08:04 2018 74.0 F. 72.0 F.
Tue Jul 10 05:08:04 2018 74.0 F. 72.0 F.
Tue Jul 10 06:08:04 2018 73.0 F. 71.1 F.
Tue Jul 10 07:08:05 2018 73.0 F. 71.1 F.
Tue Jul 10 08:08:05 2018 75.0 F. 73.0 F.
Tue Jul 10 09:08:05 2018 84.0 F. 75.0 F.
Tue Jul 10 10:08:04 2018 86.0 F. 75.0 F.
Tue Jul 10 11:08:05 2018 89.0 F. 73.0 F.
Tue Jul 10 12:08:04 2018 91.0 F. 72.0 F.
Tue Jul 10 13:08:05 2018 91.0 F. 73.0 F.
Tue Jul 10 14:08:04 2018 91.0 F. 72.0 F.
Tue Jul 10 15:08:05 2018 93.0 F. 73.0 F.
Tue Jul 10 16:08:06 2018 93.0 F. 73.9 F.
Tue Jul 10 17:08:04 2018 92.0 F. 73.9 F.
Tue Jul 10 18:08:05 2018 92.0 F. 73.9 F.
Tue Jul 10 19:08:05 2018 86.0 F. 73.0 F.
Tue Jul 10 20:08:05 2018 86.0 F. 73.0 F.
Tue Jul 10 21:08:05 2018 81.0 F. 73.0 F.
Tue Jul 10 22:08:05 2018 79.0 F. 75.0 F.
Tue Jul 10 23:08:05 2018 78.0 F. 75.0 F.
Wed Jul 11 00:08:04 2018 77.0 F. 75.0 F.
Wed Jul 11 01:08:04 2018 77.0 F. 73.9 F.
Wed Jul 11 02:08:04 2018 76.0 F. 73.9 F.
Wed Jul 11 03:08:05 2018 75.0 F. 73.9 F.
Wed Jul 11 04:08:05 2018 75.0 F. 73.9 F.
Wed Jul 11 05:08:05 2018 74.0 F. 73.0 F.
Wed Jul 11 06:08:05 2018 74.0 F. 73.0 F.
Wed Jul 11 07:08:05 2018 75.0 F. 73.0 F.
Wed Jul 11 08:08:04 2018 77.0 F. 72.0 F.
Wed Jul 11 09:08:04 2018 81.0 F. 73.4 F.
Wed Jul 11 10:08:05 2018 83.0 F. 73.9 F.
Wed Jul 11 11:08:05 2018 86.0 F. 73.0 F.
Wed Jul 11 12:08:05 2018 88.0 F. 73.0 F.
Wed Jul 11 13:08:05 2018 90.0 F. 73.9 F.
Wed Jul 11 14:08:05 2018 92.0 F. 73.0 F.
Wed Jul 11 15:08:05 2018 92.0 F. 73.0 F.
Wed Jul 11 16:08:05 2018 92.0 F. 73.0 F.
Wed Jul 11 17:08:05 2018 92.0 F. 68.0 F.
Wed Jul 11 18:08:04 2018 92.0 F. 68.0 F.
Wed Jul 11 19:08:05 2018 88.0 F. 66.9 F.
Wed Jul 11 20:08:05 2018 83.0 F. 64.9 F.
Wed Jul 11 21:08:05 2018 77.0 F. 64.0 F.
Wed Jul 11 22:08:05 2018 73.0 F. 66.9 F.
Wed Jul 11 23:08:05 2018 73.0 F. 66.9 F.
Thu Jul 12 00:08:04 2018 72.0 F. 66.9 F.
Thu Jul 12 01:08:04 2018 72.0 F. 66.9 F.
Thu Jul 12 02:08:05 2018 71.0 F. 68.0 F.
Thu Jul 12 03:08:05 2018 72.0 F. 68.0 F.
Thu Jul 12 04:08:04 2018 70.0 F. 68.0 F.
Thu Jul 12 05:08:04 2018 69.0 F. 66.9 F.
Thu Jul 12 06:08:04 2018 69.0 F. 66.9 F.
Thu Jul 12 07:08:05 2018 72.0 F. 66.0 F.
Thu Jul 12 08:08:05 2018 74.0 F. 66.0 F.
Thu Jul 12 09:08:05 2018 78.0 F. 66.0 F.
Thu Jul 12 10:08:05 2018 78.0 F. 66.0 F.
Thu Jul 12 11:08:05 2018 83.0 F. 68.0 F.
Thu Jul 12 12:08:05 2018 86.0 F. 70.0 F.
Thu Jul 12 13:08:05 2018 86.0 F. 70.0 F.
Thu Jul 12 14:08:05 2018 89.0 F. 70.0 F.
Thu Jul 12 15:08:05 2018 90.0 F. 68.0 F.
Thu Jul 12 16:08:05 2018 90.0 F. 69.1 F.
Thu Jul 12 17:08:05 2018 90.0 F. 68.0 F.
Thu Jul 12 18:08:05 2018 89.0 F. 68.0 F.
Thu Jul 12 19:08:05 2018 87.0 F. 66.9 F.
Thu Jul 12 20:08:05 2018 83.0 F. 68.0 F.
Thu Jul 12 21:08:05 2018 78.0 F. 69.1 F.
Thu Jul 12 22:08:05 2018 76.0 F. 69.1 F.
Thu Jul 12 23:08:05 2018 73.0 F. 69.1 F.
Fri Jul 13 00:08:04 2018 72.0 F. 69.1 F.
Fri Jul 13 01:08:04 2018 71.0 F. 68.0 F.
Fri Jul 13 02:08:04 2018 70.0 F. 68.0 F.
Fri Jul 13 03:08:04 2018 70.0 F. 68.0 F.
Fri Jul 13 04:08:05 2018 69.0 F. 66.9 F.
Fri Jul 13 05:08:05 2018 69.0 F. 66.9 F.
Fri Jul 13 06:08:04 2018 67.0 F. 66.0 F.
Fri Jul 13 07:08:05 2018 70.0 F. 68.0 F.
Fri Jul 13 08:08:05 2018 75.0 F. 69.1 F.
Fri Jul 13 09:08:05 2018 79.0 F. 69.1 F.
Fri Jul 13 10:08:04 2018 83.0 F. 70.0 F.
Fri Jul 13 11:08:05 2018 86.0 F. 71.1 F.
Fri Jul 13 12:08:05 2018 88.0 F. 72.0 F.
Fri Jul 13 13:08:04 2018 89.0 F. 73.0 F.
Fri Jul 13 14:08:05 2018 91.0 F. 71.1 F.
Fri Jul 13 15:08:05 2018 90.0 F. 73.0 F.
Fri Jul 13 16:08:05 2018 92.0 F. 73.9 F.
Fri Jul 13 17:08:04 2018 91.0 F. 73.0 F.
Fri Jul 13 18:08:05 2018 91.0 F. 73.9 F.
Fri Jul 13 19:08:04 2018 90.0 F. 73.0 F.
Fri Jul 13 20:08:05 2018 86.0 F. 75.9 F.
Fri Jul 13 21:08:05 2018 80.0 F. 75.0 F.
Fri Jul 13 22:08:05 2018 79.0 F. 73.9 F.
Fri Jul 13 23:08:04 2018 77.0 F. 73.0 F.
Sat Jul 14 00:08:05 2018 77.0 F. 72.0 F.
Sat Jul 14 01:08:05 2018 77.0 F. 72.0 F.
Sat Jul 14 02:08:04 2018 76.0 F. 70.0 F.
Sat Jul 14 03:08:05 2018 76.0 F. 70.0 F.
Sat Jul 14 04:08:05 2018 73.0 F. 70.0 F.
Sat Jul 14 05:08:04 2018 73.0 F. 69.1 F.
Sat Jul 14 06:08:04 2018 73.0 F. 70.0 F.
Sat Jul 14 07:08:05 2018 76.0 F. 71.1 F.
Sat Jul 14 08:08:05 2018 79.0 F. 73.0 F.
Sat Jul 14 09:08:05 2018 84.0 F. 75.0 F.
Sat Jul 14 10:08:05 2018 84.0 F. 75.0 F.
Sat Jul 14 11:08:05 2018 91.0 F. 77.0 F.
Sat Jul 14 12:08:05 2018 93.0 F. 75.9 F.
Sat Jul 14 13:08:05 2018 94.0 F. 77.0 F.
Sat Jul 14 14:08:05 2018 94.0 F. 77.0 F.
Sat Jul 14 15:08:05 2018 81.0 F. 72.0 F.
Sat Jul 14 16:08:05 2018 82.0 F. 72.0 F.
Sat Jul 14 17:08:05 2018 85.0 F. 73.9 F.
Sat Jul 14 18:08:05 2018 83.0 F. 73.0 F.
Sat Jul 14 19:08:05 2018 80.0 F. 71.1 F.
Sat Jul 14 20:08:06 2018 80.0 F. 71.1 F.
Sat Jul 14 21:08:05 2018 77.0 F. 71.1 F.
Sat Jul 14 22:08:06 2018 73.0 F. 72.0 F.
Sat Jul 14 23:08:06 2018 73.0 F. 72.0 F.
Sun Jul 15 00:08:05 2018 73.0 F. 72.0 F.
Sun Jul 15 01:08:05 2018 73.0 F. 72.0 F.
Sun Jul 15 02:08:05 2018 73.0 F. 72.0 F.
Sun Jul 15 03:08:05 2018 73.0 F. 72.0 F.
Sun Jul 15 04:08:04 2018 73.0 F. 72.0 F.
Sun Jul 15 05:08:04 2018 73.0 F. 72.0 F.
Sun Jul 15 06:08:05 2018 73.0 F. 72.0 F.
Sun Jul 15 07:08:04 2018 73.0 F. 71.6 F.
Sun Jul 15 08:08:05 2018 75.0 F. 73.4 F.
Sun Jul 15 09:08:05 2018 75.0 F. 73.4 F.
Sun Jul 15 10:08:05 2018 77.0 F. 73.4 F.
Sun Jul 15 11:08:05 2018 77.0 F. 73.4 F.
Sun Jul 15 12:08:07 2018 81.0 F. 75.2 F.
Sun Jul 15 13:08:05 2018 84.0 F. 75.2 F.
Sun Jul 15 14:08:05 2018 84.0 F. 75.2 F.
Sun Jul 15 15:08:05 2018 86.0 F. 75.2 F.
Sun Jul 15 16:08:05 2018 82.0 F. 75.2 F.
Sun Jul 15 17:08:06 2018 81.0 F. 77.0 F.
Sun Jul 15 18:08:05 2018 81.0 F. 75.2 F.
Sun Jul 15 19:08:05 2018 81.0 F. 73.4 F.
Sun Jul 15 20:08:05 2018 75.0 F. 75.2 F.
Sun Jul 15 21:08:05 2018 75.0 F. 75.2 F.
Sun Jul 15 22:08:05 2018 75.0 F. 75.2 F.
Sun Jul 15 23:08:05 2018 75.0 F. 75.2 F.
Mon Jul 16 00:08:05 2018 75.0 F. 75.2 F.
Mon Jul 16 01:08:04 2018 75.0 F. 75.2 F.
Mon Jul 16 02:08:05 2018 75.0 F. 75.2 F.
Mon Jul 16 03:08:05 2018 75.0 F. 75.2 F.
Mon Jul 16 04:08:05 2018 75.0 F. 75.2 F.
Mon Jul 16 05:08:05 2018 75.0 F. 75.2 F.
Mon Jul 16 06:08:05 2018 75.0 F. 75.2 F.
Mon Jul 16 07:08:05 2018 75.0 F. 75.2 F.
Mon Jul 16 08:08:04 2018 75.0 F. 73.4 F.
Mon Jul 16 09:08:05 2018 79.0 F. 75.2 F.
Mon Jul 16 10:08:05 2018 79.0 F. 75.2 F.
Mon Jul 16 11:08:05 2018 84.0 F. 77.0 F.
Mon Jul 16 12:08:13 2018 88.0 F. 77.0 F.
Mon Jul 16 13:08:05 2018 90.0 F. 75.2 F.
Mon Jul 16 14:08:05 2018 90.0 F. 75.2 F.
Mon Jul 16 15:08:05 2018 93.0 F. 73.4 F.
Mon Jul 16 16:08:05 2018 91.0 F. 71.6 F.
Mon Jul 16 17:08:05 2018 88.0 F. 75.2 F.
Mon Jul 16 18:08:05 2018 88.0 F. 75.2 F.
Mon Jul 16 19:08:05 2018 88.0 F. 75.2 F.
Mon Jul 16 20:08:05 2018 88.0 F. 75.2 F.
Mon Jul 16 21:08:05 2018 82.0 F. 78.8 F.
Mon Jul 16 22:08:05 2018 82.0 F. 78.8 F.
Mon Jul 16 23:08:05 2018 82.0 F. 78.8 F.
Tue Jul 17 00:08:05 2018 82.0 F. 78.8 F.
Tue Jul 17 01:08:05 2018 82.0 F. 78.8 F.
Tue Jul 17 02:08:04 2018 82.0 F. 78.8 F.
Tue Jul 17 03:08:04 2018 82.0 F. 78.8 F.
Tue Jul 17 04:08:05 2018 82.0 F. 78.8 F.
Tue Jul 17 05:08:05 2018 82.0 F. 78.8 F.
Tue Jul 17 06:08:05 2018 82.0 F. 78.8 F.
Tue Jul 17 07:08:04 2018 82.0 F. 78.8 F.
Tue Jul 17 08:08:05 2018 79.0 F. 73.4 F.
Tue Jul 17 09:08:05 2018 79.0 F. 73.4 F.
Tue Jul 17 10:08:05 2018 84.0 F. 75.2 F.
Tue Jul 17 11:08:05 2018 84.0 F. 73.4 F.
Tue Jul 17 12:08:05 2018 86.0 F. 73.4 F.
Tue Jul 17 13:08:05 2018 88.0 F. 73.4 F.
Tue Jul 17 14:08:05 2018 88.0 F. 73.4 F.
Tue Jul 17 15:08:05 2018 88.0 F. 71.6 F.
Tue Jul 17 16:08:05 2018 88.0 F. 71.6 F.
Tue Jul 17 17:08:05 2018 90.0 F. 71.6 F.
Tue Jul 17 18:08:05 2018 88.0 F. 73.4 F.
Tue Jul 17 19:08:04 2018 88.0 F. 73.4 F.
Tue Jul 17 20:08:05 2018 82.0 F. 71.6 F.
Tue Jul 17 21:08:05 2018 82.0 F. 71.6 F.
Tue Jul 17 22:08:06 2018 81.0 F. 69.8 F.
Tue Jul 17 23:08:05 2018 81.0 F. 69.8 F.
Wed Jul 18 00:08:05 2018 81.0 F. 69.8 F.
Wed Jul 18 01:08:05 2018 81.0 F. 69.8 F.
Wed Jul 18 02:08:04 2018 81.0 F. 69.8 F.
Wed Jul 18 03:08:05 2018 81.0 F. 69.8 F.
Wed Jul 18 04:08:05 2018 81.0 F. 69.8 F.
Wed Jul 18 05:08:05 2018 81.0 F. 69.8 F.
Wed Jul 18 06:08:04 2018 81.0 F. 69.8 F.
Wed Jul 18 07:08:05 2018 81.0 F. 69.8 F.
Wed Jul 18 08:08:05 2018 73.0 F. 68.0 F.
Wed Jul 18 09:08:05 2018 75.0 F. 66.2 F.
Wed Jul 18 10:08:06 2018 75.0 F. 66.2 F.
Wed Jul 18 11:08:05 2018 79.0 F. 66.2 F.
Wed Jul 18 12:08:05 2018 84.0 F. 66.2 F.
Wed Jul 18 13:08:05 2018 84.0 F. 66.2 F.
Wed Jul 18 14:08:05 2018 84.0 F. 66.2 F.
Wed Jul 18 15:08:06 2018 84.0 F. 66.2 F.
Wed Jul 18 16:08:05 2018 86.0 F. 64.4 F.
Wed Jul 18 17:08:06 2018 86.0 F. 64.4 F.
Wed Jul 18 18:08:05 2018 84.0 F. 66.2 F.
Wed Jul 18 19:08:05 2018 86.0 F. 68.0 F.
Wed Jul 18 20:08:05 2018 82.0 F. 66.2 F.
Wed Jul 18 21:08:05 2018 79.0 F. 69.1 F.
Wed Jul 18 22:08:05 2018 79.0 F. 69.1 F.
Wed Jul 18 23:08:05 2018 75.0 F. 68.0 F.
Thu Jul 19 00:08:05 2018 75.0 F. 68.0 F.
Thu Jul 19 01:08:05 2018 75.0 F. 68.0 F.
Thu Jul 19 02:08:04 2018 75.0 F. 68.0 F.
Thu Jul 19 03:08:05 2018 75.0 F. 68.0 F.
Thu Jul 19 04:08:05 2018 75.0 F. 68.0 F.
Thu Jul 19 05:08:04 2018 75.0 F. 68.0 F.
Thu Jul 19 06:08:10 2018 75.0 F. 68.0 F.
Thu Jul 19 07:08:05 2018 68.0 F. 66.2 F.
Thu Jul 19 08:08:04 2018 68.0 F. 66.2 F.
Thu Jul 19 09:08:05 2018 73.0 F. 66.2 F.
Thu Jul 19 10:08:05 2018 79.0 F. 66.2 F.
Thu Jul 19 11:08:05 2018 79.0 F. 66.2 F.
Thu Jul 19 12:08:06 2018 79.0 F. 66.2 F.
Thu Jul 19 13:08:06 2018 87.0 F. 69.1 F.
Thu Jul 19 14:08:06 2018 86.0 F. 69.1 F.
Thu Jul 19 15:08:06 2018 86.0 F. 71.1 F.
Thu Jul 19 16:08:05 2018 87.0 F. 71.1 F.
Thu Jul 19 17:08:05 2018 87.0 F. 71.1 F.
Thu Jul 19 18:08:05 2018 87.0 F. 71.1 F.
Thu Jul 19 19:08:05 2018 84.0 F. 73.9 F.
Thu Jul 19 20:08:05 2018 82.0 F. 75.0 F.
Thu Jul 19 21:08:05 2018 79.0 F. 73.9 F.
Thu Jul 19 22:08:05 2018 78.0 F. 73.9 F.
Thu Jul 19 23:08:05 2018 78.0 F. 73.9 F.
Fri Jul 20 00:08:04 2018 77.0 F. 71.1 F.
Fri Jul 20 01:08:05 2018 76.0 F. 71.1 F.
Fri Jul 20 02:08:05 2018 74.0 F. 71.1 F.
Fri Jul 20 03:08:05 2018 74.0 F. 70.0 F.
Fri Jul 20 04:08:04 2018 74.0 F. 70.0 F.
Fri Jul 20 05:08:05 2018 74.0 F. 70.0 F.
Fri Jul 20 06:08:05 2018 74.0 F. 72.0 F.
Fri Jul 20 07:08:05 2018 76.0 F. 73.0 F.
Fri Jul 20 08:08:05 2018 79.0 F. 75.0 F.
Fri Jul 20 09:08:05 2018 80.0 F. 75.0 F.
Fri Jul 20 10:08:05 2018 85.0 F. 73.9 F.
Fri Jul 20 11:08:05 2018 87.0 F. 73.9 F.
Fri Jul 20 12:08:05 2018 87.0 F. 73.9 F.
Fri Jul 20 13:08:06 2018 90.0 F. 72.0 F.
Fri Jul 20 14:08:05 2018 89.0 F. 73.0 F.
Fri Jul 20 15:08:05 2018 93.0 F. 73.0 F.
Fri Jul 20 16:08:06 2018 93.0 F. 75.0 F.
Fri Jul 20 17:08:05 2018 92.0 F. 75.9 F.
Fri Jul 20 18:08:05 2018 91.0 F. 77.0 F.
Fri Jul 20 19:08:05 2018 91.0 F. 77.0 F.
Fri Jul 20 20:08:05 2018 85.0 F. 77.0 F.
Fri Jul 20 21:08:04 2018 82.0 F. 75.9 F.
Fri Jul 20 22:08:05 2018 82.0 F. 75.9 F.
Fri Jul 20 23:08:05 2018 78.0 F. 71.1 F.
Sat Jul 21 00:08:05 2018 76.0 F. 69.1 F.
Sat Jul 21 01:08:10 2018 74.0 F. 68.0 F.
Sat Jul 21 02:08:05 2018 72.0 F. 68.0 F.
Sat Jul 21 03:08:05 2018 71.0 F. 66.9 F.
Sat Jul 21 04:08:05 2018 71.0 F. 66.0 F.
Sat Jul 21 05:08:05 2018 71.0 F. 66.0 F.
Sat Jul 21 06:08:05 2018 67.0 F. 64.9 F.
Sat Jul 21 07:08:05 2018 71.0 F. 66.0 F.
Sat Jul 21 08:08:05 2018 74.0 F. 68.0 F.
Sat Jul 21 09:08:05 2018 77.0 F. 66.0 F.
Sat Jul 21 10:08:05 2018 80.0 F. 66.0 F.
Sat Jul 21 11:08:05 2018 82.0 F. 64.9 F.
Sat Jul 21 12:08:05 2018 83.0 F. 64.0 F.
Sat Jul 21 13:08:04 2018 84.0 F. 66.0 F.
Sat Jul 21 14:08:05 2018 83.0 F. 66.0 F.
Sat Jul 21 15:08:04 2018 83.0 F. 66.0 F.
Sat Jul 21 16:08:05 2018 84.0 F. 66.9 F.
Sat Jul 21 17:08:04 2018 84.0 F. 66.0 F.
Sat Jul 21 18:08:04 2018 84.0 F. 66.0 F.
Sat Jul 21 19:08:05 2018 81.0 F. 66.0 F.
Sat Jul 21 20:08:04 2018 81.0 F. 66.0 F.
Sat Jul 21 21:08:05 2018 74.0 F. 66.0 F.
Sat Jul 21 22:08:05 2018 72.0 F. 64.9 F.
Sat Jul 21 23:08:05 2018 72.0 F. 64.9 F.
Sun Jul 22 00:08:05 2018 70.0 F. 64.9 F.
Sun Jul 22 01:08:04 2018 70.0 F. 64.9 F.
Sun Jul 22 02:08:05 2018 71.0 F. 64.9 F.
Sun Jul 22 03:08:05 2018 71.0 F. 64.9 F.
Sun Jul 22 04:08:05 2018 70.0 F. 66.0 F.
Sun Jul 22 05:08:04 2018 70.0 F. 66.0 F.
Sun Jul 22 06:08:04 2018 69.0 F. 66.0 F.
Sun Jul 22 07:08:10 2018 69.0 F. 66.0 F.
Sun Jul 22 08:08:05 2018 70.0 F. 66.0 F.
Sun Jul 22 09:08:05 2018 71.0 F. 64.9 F.
Sun Jul 22 10:08:05 2018 71.0 F. 64.9 F.